Location: Archamps
(46.1365°N, 6.1329°E)
Time: 06:35:13
(UTC+00:00)

IRIDIUM 104 - Pass Details

Date: 28 January 2023
Orbit: 776 x 779 km, 86.4° (Epoch: 21 March)

Event Time Altitude Azimuth Distance (km) Brightness Sun altitude
Rises 18:26:42 0° 1° (N) 3,276 7.5 -19.5°
Reaches altitude 10° 18:29:10 10° 8° (N) 2,343 6.7 -19.9°
Maximum altitude 18:34:12 46° 81° (E) 1,042 4.5 -20.8°
Enters shadow 18:35:12 41° 113° (ESE) 1,122 4.7 -21.0°
Exits shadow 18:40:12 - 158° (SSE) 2,700 6.9 -21.8°
Sets 18:41:37 0° 161° (SSE) 3,247 7.4 -22.1°
